When you browse on this site, cookies collect data to enhance your experience and personalize the content and advertising you see.
Visit our Privacy Policy to learn more. By continuing to use the site, you agree to this use of cookies and data.

Hourly Weather Zaryabynka

Today, 20 September, Sunday

Time Temperature Precipitation Wind Pressure Humidity
00:00 +9°C° 0 mm 3 mps 748 mmHg 65%
01:00 +8°C° 0 mm 3 mps 748 mmHg 69%
02:00 +8°C° 0 mm 2 mps 747 mmHg 78%
03:00 +7°C° 0 mm 2 mps 747 mmHg 83%
04:00 +7°C° 0 mm 2 mps 748 mmHg 87%
05:00 +7°C° 0 mm 2 mps 748 mmHg 92%
06:00 +8°C° 0 mm 3 mps 748 mmHg 86%
07:00 +10°C° 0 mm 3 mps 748 mmHg 79%
08:00 +12°C° 0 mm 4 mps 749 mmHg 70%
09:00 +14°C° 0 mm 4 mps 749 mmHg 61%
10:00 +15°C° 0 mm 5 mps 749 mmHg 52%
11:00 +17°C° 0 mm 5 mps 749 mmHg 42%
12:00 +17°C° 0 mm 5 mps 749 mmHg 40%
13:00 +17°C° 0 mm 5 mps 749 mmHg 37%
14:00 +19°C° 0 mm 5 mps 750 mmHg 34%
15:00 +18°C° 0 mm 4 mps 750 mmHg 37%
16:00 +17°C° 0 mm 3 mps 750 mmHg 39%
17:00 +16°C° 0 mm 3 mps 750 mmHg 42%
18:00 +14°C° 0 mm 2 mps 750 mmHg 48%
19:00 +12°C° 0 mm 2 mps 751 mmHg 54%
20:00 +10°C° 0 mm 2 mps 751 mmHg 60%
21:00 +9°C° 0 mm 2 mps 751 mmHg 63%
22:00 +9°C° 0 mm 1 mps 751 mmHg 67%
23:00 +9°C° 0 mm 1 mps 752 mmHg 70%

Tomorrow, 21 September, Monday

Time Temperature Precipitation Wind Pressure Humidity
00:00 +8°C° 0 mm 1 mps 752 mmHg 72%
01:00 +7°C° 0 mm 0 mps 752 mmHg 75%
02:00 +6°C° 0 mm 0 mps 752 mmHg 77%
03:00 +6°C° 0 mm 0 mps 752 mmHg 78%
04:00 +6°C° 0 mm 0 mps 752 mmHg 80%
05:00 +6°C° 0 mm 0 mps 752 mmHg 81%
06:00 +9°C° 0 mm 1 mps 752 mmHg 72%
07:00 +11°C° 0 mm 1 mps 752 mmHg 63%
08:00 +13°C° 0 mm 1 mps 753 mmHg 54%
09:00 +14°C° 0 mm 2 mps 752 mmHg 48%
10:00 +16°C° 0 mm 2 mps 752 mmHg 41%
11:00 +18°C° 0 mm 3 mps 752 mmHg 35%
12:00 +18°C° 0 mm 3 mps 752 mmHg 32%
13:00 +19°C° 0 mm 3 mps 751 mmHg 30%
14:00 +20°C° 0 mm 3 mps 751 mmHg 27%
15:00 +19°C° 0 mm 2 mps 751 mmHg 31%
16:00 +18°C° 0 mm 2 mps 751 mmHg 34%
17:00 +17°C° 0 mm 2 mps 750 mmHg 37%
18:00 +16°C° 0 mm 1 mps 751 mmHg 42%
19:00 +14°C° 0 mm 1 mps 751 mmHg 47%
20:00 +12°C° 0 mm 1 mps 751 mmHg 51%
21:00 +12°C° 0 mm 1 mps 751 mmHg 54%
22:00 +11°C° 0 mm 1 mps 751 mmHg 56%
23:00 +11°C° 0 mm 1 mps 751 mmHg 59%

Day after tomorrow, 22 September, Tuesday

Time Temperature Precipitation Wind Pressure Humidity
00:00 +10°C° 0 mm 1 mps 751 mmHg 61%
01:00 +10°C° 0 mm 1 mps 751 mmHg 63%
02:00 +10°C° 0 mm 1 mps 751 mmHg 65%
03:00 +9°C° 0 mm 1 mps 751 mmHg 67%
04:00 +9°C° 0 mm 1 mps 751 mmHg 69%
05:00 +9°C° 0 mm 1 mps 751 mmHg 71%
06:00 +11°C° 0 mm 1 mps 751 mmHg 63%
07:00 +13°C° 0 mm 1 mps 751 mmHg 56%
08:00 +15°C° 0 mm 1 mps 752 mmHg 48%
09:00 +17°C° 0 mm 2 mps 752 mmHg 42%
10:00 +19°C° 0 mm 2 mps 751 mmHg 37%
11:00 +21°C° 0 mm 2 mps 751 mmHg 31%
12:00 +21°C° 0 mm 2 mps 751 mmHg 29%
13:00 +23°C° 0 mm 2 mps 751 mmHg 27%
14:00 +24°C° 0 mm 2 mps 751 mmHg 25%
15:00 +23°C° 0 mm 2 mps 750 mmHg 28%
16:00 +21°C° 0 mm 2 mps 750 mmHg 31%
17:00 +21°C° 0 mm 1 mps 750 mmHg 34%
18:00 +19°C° 0 mm 1 mps 750 mmHg 37%
19:00 +16°C° 0 mm 1 mps 750 mmHg 40%
20:00 +14°C° 0 mm 0 mps 750 mmHg 43%
21:00 +14°C° 0 mm 1 mps 750 mmHg 44%
22:00 +14°C° 0 mm 1 mps 750 mmHg 45%
23:00 +14°C° 0 mm 1 mps 750 mmHg 45%

23 September, Wednesday

Time Temperature Precipitation Wind Pressure Humidity
00:00 +13°C° 0 mm 1 mps 750 mmHg 46%
01:00 +13°C° 0 mm 1 mps 750 mmHg 47%
02:00 +12°C° 0 mm 1 mps 749 mmHg 47%
03:00 +12°C° 0 mm 1 mps 749 mmHg 48%
04:00 +12°C° 0 mm 1 mps 749 mmHg 49%
05:00 +10°C° 0 mm 0 mps 749 mmHg 49%
06:00 +13°C° 0 mm 1 mps 750 mmHg 44%
07:00 +16°C° 0 mm 1 mps 750 mmHg 39%
08:00 +19°C° 0 mm 1 mps 750 mmHg 34%
09:00 +21°C° 0 mm 1 mps 750 mmHg 30%
10:00 +23°C° 0 mm 2 mps 750 mmHg 27%
11:00 +24°C° 0 mm 2 mps 749 mmHg 24%
12:00 +25°C° 0 mm 2 mps 749 mmHg 23%
13:00 +26°C° 0 mm 2 mps 749 mmHg 21%
14:00 +26°C° 0 mm 2 mps 748 mmHg 20%
15:00 +25°C° 0 mm 2 mps 748 mmHg 22%
16:00 +24°C° 0 mm 2 mps 748 mmHg 24%
17:00 +21°C° 0 mm 2 mps 747 mmHg 26%
18:00 +20°C° 0 mm 2 mps 747 mmHg 27%
19:00 +18°C° 0 mm 2 mps 747 mmHg 29%
20:00 +17°C° 0 mm 2 mps 747 mmHg 30%
21:00 +16°C° 0 mm 2 mps 747 mmHg 32%
22:00 +16°C° 0 mm 3 mps 747 mmHg 34%
23:00 +14°C° 0 mm 3 mps 747 mmHg 35%

24 September, Thursday

Time Temperature Precipitation Wind Pressure Humidity
00:00 +14°C° 0 mm 3 mps 747 mmHg 36%
01:00 +13°C° 0 mm 3 mps 747 mmHg 37%
02:00 +13°C° 0 mm 3 mps 747 mmHg 38%
03:00 +12°C° 0 mm 3 mps 747 mmHg 39%
04:00 +12°C° 0 mm 3 mps 747 mmHg 39%
05:00 +12°C° 0 mm 3 mps 747 mmHg 39%
06:00 +13°C° 0 mm 3 mps 747 mmHg 35%
07:00 +16°C° 0 mm 3 mps 747 mmHg 32%
08:00 +18°C° 0 mm 3 mps 748 mmHg 28%
09:00 +20°C° 0 mm 3 mps 748 mmHg 25%
10:00 +24°C° 0 mm 3 mps 748 mmHg 22%
11:00 +26°C° 0 mm 4 mps 747 mmHg 18%
12:00 +27°C° 0 mm 4 mps 747 mmHg 18%
13:00 +27°C° 0 mm 4 mps 747 mmHg 17%
14:00 +28°C° 0 mm 4 mps 747 mmHg 16%
15:00 +27°C° 0 mm 3 mps 747 mmHg 18%
16:00 +25°C° 0 mm 3 mps 746 mmHg 20%
17:00 +23°C° 0 mm 2 mps 746 mmHg 23%
18:00 +21°C° 0 mm 3 mps 746 mmHg 26%
19:00 +20°C° 0 mm 3 mps 746 mmHg 29%
20:00 +18°C° 0 mm 3 mps 747 mmHg 32%
21:00 +17°C° 0 mm 3 mps 747 mmHg 34%
22:00 +17°C° 0 mm 3 mps 747 mmHg 36%
23:00 +16°C° 0 mm 3 mps 747 mmHg 38%

25 September, Friday

Time Temperature Precipitation Wind Pressure Humidity
00:00 +16°C° 0 mm 3 mps 747 mmHg 38%
01:00 +16°C° 0 mm 3 mps 747 mmHg 39%
02:00 +14°C° 0 mm 3 mps 746 mmHg 39%
03:00 +14°C° 0 mm 3 mps 747 mmHg 40%
04:00 +14°C° 0 mm 3 mps 747 mmHg 41%
05:00 +14°C° 0 mm 3 mps 747 mmHg 41%
06:00 +17°C° 0 mm 3 mps 747 mmHg 39%
07:00 +18°C° 0 mm 4 mps 747 mmHg 37%
08:00 +19°C° 0 mm 4 mps 747 mmHg 34%
09:00 +22°C° 0 mm 4 mps 747 mmHg 32%
10:00 +25°C° 0 mm 5 mps 746 mmHg 29%
11:00 +27°C° 0 mm 5 mps 746 mmHg 26%
12:00 +27°C° 0 mm 5 mps 746 mmHg 25%
13:00 +28°C° 0 mm 6 mps 746 mmHg 24%
14:00 +28°C° 0 mm 6 mps 745 mmHg 22%
15:00 +27°C° 0 mm 5 mps 745 mmHg 24%
16:00 +26°C° 0 mm 4 mps 745 mmHg 26%
17:00 +25°C° 0 mm 4 mps 745 mmHg 28%
18:00 +23°C° 0 mm 4 mps 745 mmHg 29%
19:00 +22°C° 0 mm 4 mps 745 mmHg 31%
20:00 +20°C° 0 mm 5 mps 744 mmHg 32%
21:00 +20°C° 0 mm 5 mps 744 mmHg 34%
22:00 +19°C° 0 mm 5 mps 744 mmHg 35%
23:00 +19°C° 0 mm 5 mps 744 mmHg 36%
Show more